Theta_e
302 301 302 302 303 305 307 308 309 310 311 312 313 318 322 323 323 323 323 321 324 323 323 325 326 327 327 327 324 323 322 322 321 323 322 322 322 321 322 321 319 318 316
300 300 300 300 300 300 301 301 301 302 303 306 309 311 312 313 318 319 321 321 322 322 322 326 326 326 327 326 325 324 323 323 323 322 322 323 323 322 322 323 320 318 317
300 300 300 300 300 300 299 299 299 299 299 300 301 303 305 307 309 312 317 318 319 319 322 322 322 324 325 324 324 323 324 324 322 322 322 321 322 322 322 322 321 318 317
300 300 300 300 300 300 300 300 300 300 299 299 299 299 300 301 303 304 306 309 314 317 317 317 322 322 323 323 323 324 323 323 323 322 322 321 322 322 321 322 321 319 318
299 300 300 300 300 300 300 300 300 300 300 299 299 299 299 299 300 301 302 304 306 309 312 316 318 320 322 321 324 324 324 324 323 322 322 321 321 321 322 322 321 319 318
299 299 299 299 299 299 299 299 299 299 299 299 299 299 300 300 299 299 299 300 302 304 306 309 314 317 319 321 322 324 324 324 324 322 322 322 322 321 322 322 321 319 316
297 296 296 296 297 298 298 297 297 297 298 298 298 298 299 300 300 300 299 299 299 300 302 305 307 310 313 315 318 321 323 323 324 325 324 322 323 323 322 322 321 319 317
293 294 294 295 295 295 295 295 296 296 297 297 298 297 298 300 299 299 299 298 298 299 299 300 303 306 309 311 317 320 321 324 323 324 324 324 325 325 324 323 321 319 317
292 292 292 292 293 293 294 294 294 295 295 296 296 297 297 300 298 297 295 296 297 299 299 299 300 301 304 307 311 319 320 320 323 321 325 325 323 324 324 321 318 317 315
289 290 290 290 291 291 291 292 292 292 293 293 295 295 296 298 298 296 293 292 294 295 298 298 299 300 301 303 307 314 319 320 320 322 323 322 321 323 323 321 319 317 314
287 287 288 288 288 289 289 289 289 290 290 290 292 293 293 294 297 296 292 291 292 293 295 297 298 299 300 301 305 310 315 315 318 321 322 322 319 319 320 317 317 314 313
286 286 286 286 286 286 286 286 286 285 286 286 286 289 289 289 290 293 292 289 292 294 294 295 297 299 300 301 305 308 309 315 319 318 320 318 315 315 315 317 315 314 313
285 285 285 285 284 284 283 283 283 283 284 285 282 283 288 286 287 286 288 287 289 292 294 295 296 297 298 300 302 305 308 310 315 317 317 317 316 316 315 313 311 312 307
282 283 282 282 283 282 282 282 281 281 281 281 279 279 282 286 286 285 284 284 286 288 291 292 294 295 296 297 299 301 304 309 311 313 313 314 312 314 312 311 311 308 304
278 279 279 279 280 280 280 280 279 279 278 279 279 278 277 283 285 280 281 282 283 285 286 288 290 291 294 297 300 301 303 306 308 308 308 307 309 311 311 309 309 305 303
275 275 276 276 277 277 277 279 280 280 279 277 278 277 281 278 281 281 281 285 287 287 286 288 290 292 293 295 298 299 301 304 306 305 306 307 307 311 310 305 306 303 302
272 273 273 273 274 275 275 276 278 282 279 280 279 277 278 279 281 280 281 283 287 288 287 290 291 293 293 294 296 297 299 301 303 303 304 305 306 308 307 305 302 301 300
271 271 271 271 272 272 273 274 274 274 278 283 280 279 280 280 280 277 279 285 288 289 289 291 292 293 294 294 295 297 298 298 299 300 301 301 303 303 302 302 301 300 298
269 269 269 269 270 271 271 271 272 273 273 275 278 279 278 278 280 277 279 283 287 290 291 292 293 294 294 295 295 296 297 297 298 298 298 299 300 300 300 302 299 297 298
268 267 267 267 268 269 269 270 270 270 271 271 273 273 275 272 273 275 278 280 285 287 292 292 293 293 294 295 295 296 296 297 297 297 297 297 297 298 298 298 298 295 295
266 266 265 266 266 267 268 268 268 269 268 269 270 272 269 270 272 271 271 275 278 282 286 291 292 293 294 295 295 296 296 296 296 296 296 295 295 297 297 297 297 294 295
265 264 264 264 265 265 265 267 267 266 268 267 269 271 269 272 271 270 271 273 276 279 282 286 290 291 293 294 295 295 296 296 296 295 295 294 294 296 295 294 292 292 291
264 264 264 264 264 264 264 265 266 266 267 267 267 268 269 269 270 271 270 271 273 277 280 283 286 289 290 292 294 294 295 295 295 295 294 294 294 294 293 292 291 290 289
263 263 263 263 263 263 263 264 265 265 266 267 266 267 268 267 270 271 270 269 271 275 277 279 283 285 288 290 291 293 294 294 294 294 295 294 294 293 292 291 291 290 288
263 262 262 262 262 262 262 263 263 264 265 265 266 267 267 268 269 269 269 269 270 272 275 277 280 282 285 288 289 290 292 293 293 293 293 292 292 291 290 290 289 286 285
263 262 262 262 262 261 261 261 262 262 263 264 265 266 266 267 267 268 268 269 270 270 272 275 278 280 284 287 288 289 290 291 292 292 292 291 291 290 289 287 286 284 285
Wind_Speed
16 14 12 11 10 7 7 9 11 13 15 18 20 24 26 28 30 31 30 33 37 38 38 40 42 44 49 49 49 49 48 47 50 52 46 43 40 32 29 28 30 29 28
13 12 11 11 11 11 12 13 14 16 17 19 20 21 22 24 25 29 33 29 34 38 41 48 42 41 44 45 46 49 48 47 48 48 43 44 41 39 37 33 34 33 33
12 13 13 14 14 16 19 20 21 22 23 24 24 25 26 26 27 27 30 31 34 36 41 42 45 46 49 49 49 49 48 48 49 49 44 44 43 39 39 39 38 37 36
16 19 20 21 21 22 24 27 29 30 31 30 29 30 30 30 31 30 30 30 34 37 40 43 49 47 48 51 52 51 49 51 50 50 46 47 45 42 41 43 42 42 39
22 24 26 28 30 32 34 36 38 40 40 40 38 35 34 34 34 33 33 35 36 37 38 41 48 51 53 49 51 52 51 53 53 51 50 49 49 46 45 46 44 42 39
25 28 30 33 35 39 42 45 47 49 49 47 46 44 42 39 36 36 35 36 38 40 42 44 46 47 53 52 53 55 49 52 54 52 53 54 55 57 50 48 48 45 40
31 33 35 39 42 44 47 49 49 49 49 50 49 48 48 47 45 42 39 39 41 43 45 46 47 50 52 52 58 56 53 47 58 60 57 59 57 55 53 52 53 45 43
29 33 36 39 41 41 42 43 45 46 47 48 49 50 52 53 52 52 52 48 45 47 48 50 50 51 51 53 55 56 58 53 53 68 67 64 56 55 48 49 48 41 37
28 29 31 33 36 38 39 41 43 45 47 49 51 53 54 56 56 57 56 56 57 54 51 52 53 55 55 51 51 55 59 57 55 59 60 66 67 63 52 41 43 37 40
26 28 30 31 34 36 37 38 39 40 43 45 48 49 53 58 60 61 57 57 60 60 60 56 53 54 56 54 50 52 56 65 61 61 58 64 70 71 56 49 46 42 41
28 29 30 31 33 34 37 37 39 41 44 45 48 51 52 54 59 61 59 54 53 57 58 61 57 54 53 53 52 50 60 60 61 61 57 62 67 72 59 48 43 41 45
29 31 33 34 35 38 40 42 42 42 45 48 51 57 57 54 52 53 55 42 41 45 53 55 57 53 49 50 49 52 50 55 58 63 63 62 63 66 55 49 43 38 42
32 34 36 38 39 39 42 44 45 44 45 48 48 53 60 59 58 54 55 50 40 44 45 49 48 49 50 50 53 51 48 48 59 65 68 65 63 65 57 45 40 37 36
35 37 38 41 42 41 42 43 45 45 46 46 46 49 56 62 62 59 54 50 46 46 45 41 43 46 49 52 51 51 52 50 58 64 62 62 60 63 52 48 42 40 38
37 38 40 42 43 44 43 44 44 42 39 42 44 45 49 60 63 50 52 56 58 57 56 60 56 56 52 49 49 49 51 53 56 60 57 57 60 60 54 51 42 43 46
40 40 40 42 43 44 46 50 45 43 42 39 39 37 48 45 54 57 56 49 49 50 61 60 56 51 49 48 45 44 49 53 58 57 60 61 63 64 57 52 48 51 54
39 40 40 41 43 44 45 47 53 53 44 44 43 41 41 47 49 53 54 54 50 53 58 56 54 51 51 49 48 45 47 54 54 56 60 63 64 64 62 54 54 55 55
40 39 39 41 42 43 43 43 44 48 55 59 51 51 48 47 46 50 50 49 52 53 51 51 52 52 50 49 48 46 46 49 54 56 60 63 64 64 62 55 60 61 59
41 41 39 39 40 41 41 41 42 44 46 49 54 53 52 50 48 47 46 43 45 50 48 50 51 51 52 52 50 49 49 50 56 55 58 62 64 63 60 60 62 63 61
40 40 38 38 39 40 40 41 41 42 44 46 48 50 53 52 53 53 47 47 42 43 48 50 52 50 51 52 54 52 49 51 54 56 57 60 62 62 60 61 63 65 63
40 41 39 39 38 38 38 40 40 40 42 44 45 45 40 44 48 48 49 46 46 43 37 46 48 51 51 51 51 50 51 51 53 56 57 58 59 61 61 59 60 60 59
39 40 40 39 38 38 38 36 38 40 39 43 45 45 43 46 47 47 47 47 45 44 39 34 43 46 47 50 49 51 52 51 53 55 55 55 57 60 58 56 56 58 58
36 38 39 38 38 37 37 36 36 38 39 40 42 44 45 46 48 48 49 47 45 44 40 36 31 37 41 44 47 48 50 51 53 54 56 57 58 57 56 56 56 57 60
34 35 36 37 37 36 36 37 37 37 38 39 41 42 43 45 47 48 49 48 47 43 40 37 32 27 33 41 40 42 45 47 47 48 53 57 58 56 56 56 60 61 63
33 35 35 35 36 36 36 36 36 36 37 38 40 41 42 43 45 47 49 50 49 46 42 38 34 30 27 29 35 38 38 41 47 50 50 54 52 52 54 57 58 58 62
33 33 33 34 34 34 34 36 36 36 36 37 38 39 40 41 42 45 47 49 50 50 45 39 34 31 26 24 27 30 35 40 42 48 49 50 51 49 51 52 56 59 61
Wind_Direction
68 67 63 57 46 29 8 349 335 330 321 312 300 287 286 290 293 291 281 284 290 290 287 285 287 288 282 279 275 272 264 261 254 268 267 264 260 257 251 257 248 254 254
44 39 35 30 23 13 5 353 340 330 324 317 309 304 301 295 288 285 286 286 288 286 288 282 283 284 285 281 278 273 267 262 255 258 261 256 252 261 256 255 254 255 254
9 5 358 354 352 352 349 346 342 335 328 322 314 307 302 297 292 287 283 286 284 287 287 281 283 283 279 276 273 269 268 265 258 254 260 255 249 253 250 250 247 247 250
345 345 343 339 337 335 333 331 329 328 326 322 316 312 306 301 297 295 293 287 281 279 277 277 278 275 274 275 270 270 268 258 256 253 252 251 247 250 251 247 246 246 246
337 334 331 327 326 324 323 322 319 318 315 315 312 307 305 302 298 296 294 292 288 283 279 276 273 274 273 271 270 269 266 261 255 251 247 245 243 242 243 246 245 248 244
330 327 325 322 321 320 319 318 317 315 313 310 309 307 302 299 298 296 296 292 288 285 282 277 274 275 274 275 272 270 269 264 259 251 245 245 248 245 251 243 244 236 231
329 327 326 323 321 320 318 316 314 313 311 310 309 307 303 300 299 297 296 294 290 285 283 281 279 277 277 278 275 270 268 265 267 259 252 250 251 253 250 244 241 240 244
329 328 326 324 322 321 320 319 318 317 315 312 309 307 303 299 299 299 299 296 288 285 283 280 279 277 274 271 269 271 268 264 260 259 256 257 255 257 253 256 242 236 243
334 333 331 329 328 328 327 326 325 322 319 316 313 310 307 301 301 301 302 299 294 288 283 280 279 278 276 274 268 265 267 267 264 264 263 260 255 254 250 243 231 224 227
345 344 342 338 335 333 331 330 327 323 319 317 313 311 308 304 301 303 304 301 295 292 288 283 278 276 276 276 269 262 262 262 261 262 265 259 247 249 241 233 229 222 225
346 344 342 341 337 336 333 335 332 329 327 325 321 318 314 311 304 306 307 304 298 295 290 285 281 278 277 276 274 261 259 261 262 263 268 260 246 243 232 222 224 230 223
341 340 340 339 340 340 338 339 337 334 330 328 325 322 320 317 311 304 302 299 293 286 286 286 286 284 280 275 272 267 263 258 258 265 259 250 243 233 225 221 219 227 233
337 337 336 337 338 339 337 338 335 335 332 329 325 321 320 319 314 310 307 303 294 289 285 283 286 285 284 275 268 264 264 256 256 257 252 250 248 236 222 215 212 222 231
333 334 334 332 333 335 335 336 334 333 330 325 321 317 318 316 315 314 310 305 298 290 288 293 292 288 284 280 275 266 257 253 254 252 250 250 242 225 216 214 216 217 216
330 331 330 329 330 329 330 332 331 329 324 320 317 312 308 313 311 305 301 300 295 291 291 289 286 281 278 275 272 267 258 255 254 247 239 235 234 220 213 213 216 213 209
324 326 325 324 325 327 327 325 328 329 326 318 315 310 314 301 307 308 308 304 295 289 288 280 277 274 271 268 266 263 260 255 252 242 237 237 232 218 213 211 210 208 204
321 320 320 320 322 324 325 325 324 322 324 325 326 322 315 310 310 307 305 303 296 294 282 277 274 270 268 265 261 256 252 255 251 239 236 233 229 219 213 207 209 204 202
320 319 320 319 319 320 321 322 323 325 325 325 330 329 327 321 315 310 308 305 296 292 279 275 273 269 267 263 259 253 252 246 244 237 231 229 223 217 211 208 209 202 200
320 319 319 317 316 317 320 321 322 324 325 325 328 330 333 326 319 316 316 313 305 287 285 278 275 271 267 265 259 253 249 245 242 236 229 227 222 216 212 207 207 202 200
318 318 319 318 317 319 321 322 324 325 326 327 330 334 334 332 326 323 324 320 309 308 288 284 281 277 272 264 259 252 248 244 239 235 230 225 221 215 209 206 203 198 198
320 319 320 320 319 319 322 325 325 326 326 327 330 335 330 327 330 327 326 325 321 312 314 292 287 283 280 268 255 249 245 243 238 234 228 224 218 214 213 210 204 200 196
322 321 323 324 322 322 322 325 327 327 329 330 332 336 341 342 338 334 332 330 326 322 315 312 299 294 284 275 263 251 247 243 238 232 227 221 218 217 211 206 199 195 192
325 324 324 323 324 323 322 326 329 330 332 334 335 337 343 344 343 344 340 336 333 328 325 320 310 301 296 286 272 259 251 248 243 238 230 224 220 215 207 202 198 192 191
332 329 326 324 325 326 326 327 329 330 334 336 337 339 342 344 347 347 346 345 341 336 332 327 323 312 297 294 289 276 263 258 250 244 243 231 223 214 207 202 201 199 195
333 330 329 327 326 328 329 330 330 332 334 335 337 341 342 345 347 348 349 351 349 344 339 333 328 323 313 295 288 288 280 269 253 244 240 227 221 213 205 202 198 193 192
333 332 331 329 328 329 329 330 332 334 334 335 337 341 344 347 348 349 351 352 354 352 346 342 335 327 320 311 297 288 287 276 261 245 236 228 219 210 203 198 195 192 193